Regional Weather Roundup
Issued by NWS

Home | Current Version | Previous Version | Text Only | Print | Product List | Glossary On
Versions: 1 2 3 4 5 6 7 8 9 10 11 12 13 14 15 16 17 18 19 20 21 22 23 24 25 26 27 28 29 30 31 32 33 34 35 36 37 38 39 40 41 42 43 44 45 46 47 48 49 50
000
ASUS43 KDTX 240610
RWRMI
MICHIGAN HOURLY REGIONAL WEATHER ROUNDUP
NATIONAL WEATHER SERVICE DETROIT/PONTIAC MI
200 AM EDT THU MAY 24 2018

NOTE: "FAIR" INDICATES FEW OR NO CLOUDS BELOW 12,000 FEET WITH NO
SIGNIFICANT WEATHER AND/OR OBSTRUCTION TO VISIBILITY.

MIZ047>049-052>055-059>063-066>070-074>076-081>083-240700-
SOUTHEAST LOWER MICHIGAN

CITY           SKY/WX    TMP DP  RH WIND       PRES   REMARKS
ADRIAN         FAIR      59  56  89 CALM      30.22R
6HR MIN TEMP:  58; 6HR MAX TEMP:  76;

ALMA           FAIR      56  55  93 CALM      30.21S
6HR MIN TEMP:  56; 6HR MAX TEMP:  73;

ANN ARBOR      FAIR      51  50  96 CALM      30.20S
BAD AXE        FAIR      55  48  80 SW3       30.19S
6HR MIN TEMP:  51; 6HR MAX TEMP:  69;

CARO           FAIR      51  50  95 CALM      30.19S
DETROIT CITY   FAIR      61  52  72 CALM      30.19S
6HR MIN TEMP:  60; 6HR MAX TEMP:  74;

DETROIT        FAIR      63  52  67 S3        30.20S
6HR MIN TEMP:  62; 6HR MAX TEMP:  75;

FLINT          FAIR      52  51  97 CALM      30.20S
6HR MIN TEMP:  52; 6HR MAX TEMP:  74;

GROSSE ILE     FAIR      57  53  86 CALM      30.19S
6HR MIN TEMP:  57; 6HR MAX TEMP:  67;

HILLSDALE      FAIR      54  50  87 CALM      30.21S
HOWELL         FAIR      54  51  90 CALM      30.21R
6HR MIN TEMP:  53; 6HR MAX TEMP:  74;


CITY           SKY/WX    TMP DP  RH WIND       PRES   REMARKS
JACKSON        FAIR      55  53  93 SW3       30.21S
6HR MIN TEMP:  53; 6HR MAX TEMP:  74;

LAMBERTVILLE   FAIR      58  53  85 CALM      30.20S
6HR MIN TEMP:  58; 6HR MAX TEMP:  78;

LANSING        FAIR      56  54  93 CALM      30.21S
6HR MIN TEMP:  56; 6HR MAX TEMP:  76;

LAPEER         FAIR      50  50  97 CALM      30.21S
6HR MIN TEMP:  50; 6HR MAX TEMP:  74;

MASON          FAIR      56  54  92 CALM      30.21S
6HR MIN TEMP:  56; 6HR MAX TEMP:  74;

MONROE         FAIR      57  55  93 CALM      30.19S
6HR MIN TEMP:  57; 6HR MAX TEMP:  71;

MT. CLEMENS    FAIR      56  56 100 CALM      30.18S
6HR MIN TEMP:  56; 6HR MAX TEMP:  71;

PONTIAC        FAIR      57  54  89 CALM      30.19S
6HR MIN TEMP:  57; 6HR MAX TEMP:  77;

PORT HOPE        N/A     60  49  66 SW6       30.15S
6HR MIN TEMP:  54; 6HR MAX TEMP:  62;

PORT HURON     FAIR      48  46  93 CALM      30.19F
TRI CITIES     FAIR      65  54  67 W10       30.19S
6HR MIN TEMP:  63; 6HR MAX TEMP:  78;

MIDLAND        FAIR      57  54  90 CALM      30.19S
6HR MIN TEMP:  56; 6HR MAX TEMP:  76;

TROY           FAIR      64  51  64 W5        30.22S
SAGINAW HB     FAIR      63  52  67 W7        30.18S
$$
MIZ043>046-050>051-056>058-064>065-071>073-077>080-240700-
SOUTHWEST LOWER MICHIGAN

CITY           SKY/WX    TMP DP  RH WIND       PRES   REMARKS
BATTLE CREEK   FAIR      57  54  89 CALM      30.22R
6HR MIN TEMP:  56; 6HR MAX TEMP:  76;

BENTON HARBOR  FAIR      53  51  93 CALM      30.20S
6HR MIN TEMP:  53; 6HR MAX TEMP:  69;

BIG RAPIDS     FAIR      52  49  90 CALM      30.21S
6HR MIN TEMP:  52; 6HR MAX TEMP:  75;

COLDWATER      FAIR      56  56  99 CALM      30.21S
6HR MIN TEMP:  56; 6HR MAX TEMP:  74;

FREMONT        FAIR      53  53 100 CALM      30.20S
6HR MIN TEMP:  53; 6HR MAX TEMP:  73;

HOLLAND        FAIR      56  53  90 CALM      30.20S
6HR MIN TEMP:  54; 6HR MAX TEMP:  69;

GRAND RAPIDS   FAIR      57  55  93 CALM      30.21R
6HR MIN TEMP:  56; 6HR MAX TEMP:  73;

IONIA          FAIR      59  51  75 CALM      30.20S
6HR MIN TEMP:  58; 6HR MAX TEMP:  75;

KALAMAZOO      FAIR      57  55  93 CALM      30.21S FOG
6HR MIN TEMP:  57; 6HR MAX TEMP:  78;

LUDINGTON      FAIR      48  48 100 CALM      30.18S
6HR MIN TEMP:  48; 6HR MAX TEMP:  66;

MARSHALL       FAIR      54  52  95 CALM      30.21S
6HR MIN TEMP:  54; 6HR MAX TEMP:  74;

MOUNT PLEASANT FAIR      59  56  89 CALM      30.20S
6HR MIN TEMP:  58; 6HR MAX TEMP:  78;

MUSKEGON       FAIR      54  51  90 SE3       30.20S
6HR MIN TEMP:  53; 6HR MAX TEMP:  66;

SOUTH HAVEN    FAIR      54  52  94 CALM      30.20S
$$
MIZ016>042-240700-
NORTHERN LOWER MICHIGAN

CITY           SKY/WX    TMP DP  RH WIND       PRES   REMARKS
ALPENA         FAIR      52  50  93 CALM      30.16R
6HR MIN TEMP:  51; 6HR MAX TEMP:  71;

BEAVER ISLAND  FAIR      45  45  98 CALM      30.17S
6HR MIN TEMP:  43; 6HR MAX TEMP:  55;

BELLAIRE       FOG       50  49  97 CALM      30.19R VSB 1/2
6HR MIN TEMP:  50; 6HR MAX TEMP:  70;

CADILLAC       FAIR      47  46  98 CALM      30.20S
CHARLEVOIX     FAIR      49  49 100 CALM      30.21R
6HR MIN TEMP:  44; 6HR MAX TEMP:  63;

FRANKFORT      FAIR      53  49  87 CALM      30.18S
GAYLORD        FAIR      55  52  89 CALM      30.19S
6HR MIN TEMP:  51; 6HR MAX TEMP:  75;

GRAYLING       FAIR      53  50  91 W3        30.18S
6HR MIN TEMP:  51; 6HR MAX TEMP:  76;

HARBOR SPRINGS FAIR      50  49  98 CALM      30.18S FOG
HOUGHTON LAKE  FAIR      54  53  97 CALM      30.20S
6HR MIN TEMP:  54; 6HR MAX TEMP:  76;

MANISTEE       FAIR      49  48  97 E5        30.19S
OSCODA         FAIR      51  42  70 CALM      30.16S
6HR MIN TEMP:  51; 6HR MAX TEMP:  70;

PELLSTON       FAIR      47  46  97 CALM      30.18R
6HR MIN TEMP:  47; 6HR MAX TEMP:  77;

ROGERS CITY    FAIR      52  47  82 W5        30.16S
TRAVERSE CITY  FAIR      54  51  90 CALM      30.17S
6HR MIN TEMP:  52; 6HR MAX TEMP:  62;

$$
MIZ007>008-015-240700-
EASTERN UPPER MICHIGAN

CITY           SKY/WX    TMP DP  RH WIND       PRES   REMARKS
KINROSS        FAIR      55  53  93 SW6       30.16R
6HR MIN TEMP:  55; 6HR MAX TEMP:  76;

MACKINAC ISLAN FOG       48  48 100 W9        30.17S VSB 1/4
6HR MIN TEMP:  47; 6HR MAX TEMP:  66;

NEWBERRY       FAIR      52  51  97 SW8       30.15R
6HR MIN TEMP:  52; 6HR MAX TEMP:  74;

S. S. MARIE    FAIR      57  50  77 W3        30.14R
6HR MIN TEMP:  56; 6HR MAX TEMP:  74;

MUNISING         N/A     59  53  80 S6        30.11F
6HR MIN TEMP:  53; 6HR MAX TEMP:  60;

$$
MIZ004>006-011>014-085-240700-
CENTRAL UPPER MICHIGAN

CITY           SKY/WX    TMP DP  RH WIND       PRES   REMARKS
MANISTIQUE     FAIR      43  41  94 SE5       30.15S
6HR MIN TEMP:  42; 6HR MAX TEMP:  54;

ESCANABA       FAIR      52  51  97 CALM      30.14S
6HR MIN TEMP:  51; 6HR MAX TEMP:  66;

MENOMINEE      FAIR      67  58  72 W5        30.15S
6HR MIN TEMP:  64; 6HR MAX TEMP:  73;

SAWYER-GWINN   FAIR      57  50  77 S7        30.13S
6HR MIN TEMP:  57; 6HR MAX TEMP:  72;

$$
MIZ001>003-009>011-084-240700-
WESTERN UPPER MICHIGAN

CITY           SKY/WX    TMP DP  RH WIND       PRES   REMARKS
IRON MOUNTAIN  FAIR      67  58  72 CALM      30.13R
6HR MIN TEMP:  65; 6HR MAX TEMP:  79;

HOUGHTON       FAIR      52  47  83 CALM      30.10S
6HR MIN TEMP:  52; 6HR MAX TEMP:  66;

COPPER HARBOR    N/A     62  47  57 SW8       30.07F
6HR MIN TEMP:  58; 6HR MAX TEMP:  66;

IRONWOOD       FAIR      56  55  97 CALM      30.13S
6HR MIN TEMP:  56; 6HR MAX TEMP:  78;

$$

ABBREVIATIONS USED IN REMARKS
   TC - TEMPERATURE IN CELSIUS
  WCI - WIND CHILL INDEX
   HX - HEAT INDEX
  VSB - VISIBILITY





USA.gov is the U.S. government's official web portal to all federal, state and local government web resources and services.